Location: Newark
(9.4667°S, 159.8167°E)
Time: 13:40:13
(UTC+00:00)

Explorer 7 - Pass Details

Date: 23 November 2019
Orbit: 485 x 680 km, 50.3° (Epoch: 11 December)

Event Time Altitude Azimuth Distance (km) Brightness Sun altitude
Rises 08:38:14 0° 229° (SW) 2,978 12.0 -17.5°
Reaches altitude 10° 08:40:39 10° 235° (SW) 2,083 11.0 -18.1°
Maximum altitude 08:45:14 43° 306° (NW) 946 8.2 -19.1°
Enters shadow 08:48:01 22° 6° (N) 1,476 8.7 -19.7°
